User: anonymous   Login
Location: Trondheim
(63.4170°N, 10.4170°E)
Time: 12:34:19
(UTC+02:00)
Language:

Iridium 82 - Orbit

View from above orbital plane
View from above orbital plane
View from above satellite
View from above satellite

Ground track
Ground track

The orbit data is extracted from the following two-line orbital elements,

1 25467U 98051A   17174.65657554 +.00000594 +00000-0 +42651-4 0  9990
2 25467 086.4000 017.5661 0183735 008.8213 351.6165 14.89255228987815
Epoch (UTC): 23 June 2017 15:45:28
Eccentricity: 0.0183735
inclination: 86.4000°
perigee height: 472 km
apogee height: 728 km
right ascension of ascending node: 17.5661°
argument of perigee: 8.8213°
revolutions per day: 14.89255228
mean anomaly at epoch: 351.6165°
orbit number at epoch: 98781

The dashed part of the orbit path shows where the satellite is in the earth's shadow,  

DLR